Date String (YYYY-MM-DD hh:mm:ss) UTC,Instrument flags,absolute air pressure of the measurement (hPa),sample flow rate (lpm),inlet stack bypass flow (lpm),air temperature of the measurement (°C),ambient temperature measured by the external sensor (°C),aerosol sample conditioner tube jacket temperature (°C),OPC LED temperature (°C),internal box temperature (°C),relative humidity of the measurement (%),span deviation,mass concentration of particles derived from Lorenz-Mie calculation of OPC scattering (μg/m³),mass concentration of particles derived from Lorenz-Mie calculation of OPC scattering (μg/m³),mass concentration of particles derived from Lorenz-Mie calculation of OPC scattering (μg/m³)
DateTimeUTC,F1_M11,P_M11,Q1_M11,Q2_M11,T1_M11,T2_M11,T3_M11,T4_M11,T5_M11,U1_M11,ZSPAN_M11,X2_M11,X0_M11,X1_M11
2024-05-26 18:00:00,SystemResetWarning,0825.9,5.00,000.00,027.3,026.5,000.0,035.5,029.0,011.3,0000.0,0002.46,0006.29,0001.93
2024-05-26 18:01:00,SystemResetWarning,0825.9,4.99,000.00,027.3,026.5,000.0,035.5,029.0,011.4,0000.0,0002.43,0006.15,0001.93
2024-05-26 18:02:00,SystemResetWarning,0825.9,4.99,000.00,027.3,026.5,000.0,035.5,029.0,011.4,0000.0,0002.44,0006.09,0001.94
2024-05-26 18:03:00,SystemResetWarning,0825.9,5.01,000.00,027.3,026.5,000.0,035.5,029.0,011.6,0000.0,0002.49,0006.13,0001.95
2024-05-26 18:04:00,SystemResetWarning,0825.9,5.00,000.00,027.3,026.5,000.0,035.5,029.0,011.9,0000.0,0002.49,0006.16,0001.94
2024-05-26 18:05:00,SystemResetWarning,0825.8,5.01,000.00,027.3,026.5,000.0,035.5,029.1,011.5,0000.0,0002.59,0006.36,0001.95
2024-05-26 18:06:00,SystemResetWarning,0825.8,5.00,000.00,027.3,026.5,000.0,035.5,029.1,011.5,0000.0,0002.65,0006.77,0001.97
2024-05-26 18:07:00,SystemResetWarning,0826.1,5.00,000.00,027.3,026.5,000.0,035.5,029.1,011.1,0000.0,0002.59,0006.75,0001.95
2024-05-26 18:08:00,SystemResetWarning,0825.9,4.98,000.00,027.3,026.5,000.0,035.5,029.1,011.6,0000.0,0002.60,0006.87,0001.93
2024-05-26 18:09:00,SystemResetWarning,0825.8,5.00,000.00,027.3,026.5,000.0,035.6,029.1,011.8,0000.0,0002.58,0007.42,0001.93
2024-05-26 18:10:00,SystemResetWarning,0825.9,5.01,000.00,027.3,026.5,000.0,035.6,029.1,012.0,0000.0,0002.57,0007.07,0001.94
2024-05-26 18:11:00,SystemResetWarning,0826.0,5.00,000.00,027.3,026.5,000.0,035.6,029.1,011.7,0000.0,0002.58,0006.02,0001.94
2024-05-26 18:12:00,SystemResetWarning,0826.0,5.00,000.00,027.3,026.5,000.0,035.6,029.1,011.8,0000.0,0002.63,0006.54,0001.93
2024-05-26 18:13:00,SystemResetWarning,0826.0,4.99,000.00,027.3,026.5,000.0,035.6,029.1,012.0,0000.0,0002.66,0006.74,0001.92
2024-05-26 18:14:00,SystemResetWarning,0826.0,5.01,000.00,027.3,026.5,000.0,035.6,029.1,011.8,0000.0,0002.61,0006.59,0001.92
2024-05-26 18:15:00,SystemResetWarning,0826.1,5.01,000.00,027.3,026.6,000.0,035.6,029.1,012.0,0000.0,0002.64,0006.61,0001.95
2024-05-26 18:16:00,SystemResetWarning,0826.2,5.01,000.00,027.4,026.6,000.0,035.6,029.1,012.2,0000.0,0002.60,0006.46,0001.95
2024-05-26 18:17:00,SystemResetWarning,0826.2,4.99,000.00,027.4,026.6,000.0,035.6,029.1,012.1,0000.0,0002.60,0005.97,0001.95
2024-05-26 18:18:00,SystemResetWarning,0826.3,5.00,000.00,027.4,026.6,000.0,035.6,029.2,012.0,0000.0,0002.65,0005.92,0001.98
2024-05-26 18:19:00,SystemResetWarning,0826.3,5.00,000.00,027.4,026.6,000.0,035.6,029.2,011.5,0000.0,0002.68,0006.20,0002.00
2024-05-26 18:20:00,SystemResetWarning,0826.3,5.00,000.00,027.4,026.6,000.0,035.6,029.1,011.6,0000.0,0002.72,0005.49,0002.01
2024-05-26 18:21:00,SystemResetWarning,0826.2,5.00,000.00,027.4,026.6,000.0,035.6,029.2,011.8,0000.0,0002.71,0005.45,0002.02
2024-05-26 18:22:00,SystemResetWarning,0826.2,5.00,000.00,027.4,026.7,000.0,035.6,029.2,011.8,0000.0,0002.66,0005.25,0002.01
2024-05-26 18:23:00,SystemResetWarning,0826.3,5.01,000.00,027.4,026.7,000.0,035.6,029.2,011.9,0000.0,0002.64,0005.70,0002.02
2024-05-26 18:24:00,SystemResetWarning,0826.4,5.00,000.00,027.4,026.7,000.0,035.6,029.2,011.7,0000.0,0002.59,0007.40,0002.01
2024-05-26 18:25:00,SystemResetWarning,0826.3,4.99,000.00,027.5,026.7,000.0,035.6,029.2,011.7,0000.0,0002.57,0007.39,0002.00
2024-05-26 18:26:00,SystemResetWarning,0826.3,4.99,000.00,027.5,026.7,000.0,035.6,029.2,011.9,0000.0,0002.53,0007.31,0001.99
2024-05-26 18:27:00,SystemResetWarning,0826.2,5.00,000.00,027.5,026.7,000.0,035.6,029.2,012.2,0000.0,0002.50,0007.45,0001.99
2024-05-26 18:28:00,SystemResetWarning,0826.2,5.00,000.00,027.5,026.7,000.0,035.7,029.3,012.7,0000.0,0002.52,0008.03,0002.00
2024-05-26 18:29:00,SystemResetWarning,0826.1,5.01,000.00,027.5,026.7,000.0,035.7,029.3,012.5,0000.0,0002.46,0007.94,0001.99
2024-05-26 18:30:00,SystemResetWarning,0826.0,5.01,000.00,027.5,026.7,000.0,035.7,029.2,012.3,0000.0,0002.46,0007.83,0001.99
2024-05-26 18:31:00,SystemResetWarning,0825.9,5.00,000.00,027.5,026.7,000.0,035.7,029.2,012.5,0000.0,0002.42,0007.66,0001.98
2024-05-26 18:32:00,SystemResetWarning,0826.0,5.01,000.00,027.5,026.7,000.0,035.7,029.2,012.4,0000.0,0002.42,0007.71,0001.97
2024-05-26 18:33:00,SystemResetWarning,0826.0,5.00,000.00,027.5,026.7,000.0,035.7,029.2,012.8,0000.0,0002.48,0007.81,0001.99
2024-05-26 18:34:00,SystemResetWarning,0826.1,5.00,000.00,027.5,026.7,000.0,035.7,029.3,012.7,0000.0,0002.52,0007.46,0002.00
2024-05-26 18:35:00,SystemResetWarning,0826.0,4.99,000.00,027.5,026.7,000.0,035.7,029.3,012.6,0000.0,0002.54,0005.34,0002.00
2024-05-26 18:36:00,SystemResetWarning,0825.9,4.99,000.00,027.5,026.7,000.0,035.7,029.3,012.7,0000.0,0002.57,0005.43,0002.00
2024-05-26 18:37:00,SystemResetWarning,0826.0,5.00,000.00,027.5,026.7,000.0,035.8,029.3,012.7,0000.0,0002.64,0005.57,0002.01
2024-05-26 18:38:00,SystemResetWarning,0825.9,5.00,000.00,027.5,026.8,000.0,035.8,029.3,012.6,0000.0,0002.67,0006.82,0002.02
2024-05-26 18:39:00,SystemResetWarning,0826.0,5.01,000.00,027.5,026.7,000.0,035.8,029.3,012.3,0000.0,0002.63,0005.80,0002.02
2024-05-26 18:40:00,SystemResetWarning,0826.2,5.00,000.00,027.5,026.7,000.0,035.8,029.3,012.6,0000.0,0002.65,0005.90,0002.03
2024-05-26 18:41:00,SystemResetWarning,0826.2,5.00,000.00,027.5,026.7,000.0,035.8,029.3,012.8,0000.0,0002.67,0006.56,0002.02
2024-05-26 18:42:00,SystemResetWarning,0826.2,5.00,000.00,027.6,026.8,000.0,035.8,029.3,012.3,0000.0,0002.68,0006.72,0002.02
2024-05-26 18:43:00,SystemResetWarning,0826.2,5.00,000.00,027.6,026.8,000.0,035.8,029.3,012.5,0000.0,0002.69,0006.71,0002.03
2024-05-26 18:44:00,SystemResetWarning,0826.3,5.00,000.00,027.6,026.8,000.0,035.8,029.4,012.6,0000.0,0002.69,0007.04,0002.04
2024-05-26 18:45:00,SystemResetWarning,0826.3,5.00,000.00,027.6,026.8,000.0,035.8,029.4,012.5,0000.0,0002.63,0007.05,0002.03
2024-05-26 18:46:00,SystemResetWarning,0826.4,5.00,000.00,027.6,026.8,000.0,035.8,029.4,012.7,0000.0,0002.66,0007.21,0002.04
2024-05-26 18:47:00,SystemResetWarning,0826.3,5.00,000.00,027.6,026.8,000.0,035.8,029.4,013.0,0000.0,0002.66,0007.19,0002.04
2024-05-26 18:48:00,SystemResetWarning,0826.4,5.00,000.00,027.6,026.9,000.0,035.8,029.4,012.7,0000.0,0002.64,0007.20,0002.03
2024-05-26 18:49:00,SystemResetWarning,0826.4,5.00,000.00,027.6,026.9,000.0,035.8,029.4,012.7,0000.0,0002.65,0007.00,0002.02
2024-05-26 18:50:00,SystemResetWarning,0826.4,5.00,000.00,027.6,026.9,000.0,035.8,029.4,012.6,0000.0,0002.65,0006.90,0002.01
2024-05-26 18:51:00,SystemResetWarning,0826.5,5.00,000.00,027.7,026.9,000.0,035.8,029.4,012.7,0000.0,0002.63,0006.60,0002.01
2024-05-26 18:52:00,SystemResetWarning,0826.4,5.00,000.00,027.7,026.9,000.0,035.8,029.4,013.0,0000.0,0002.63,0006.00,0002.02
2024-05-26 18:53:00,SystemResetWarning,0826.4,5.00,000.00,027.7,026.9,000.0,035.8,029.4,013.1,0000.0,0002.61,0005.88,0002.02
2024-05-26 18:54:00,SystemResetWarning,0826.4,5.00,000.00,027.7,026.9,000.0,035.9,029.5,012.5,0000.0,0002.62,0006.03,0002.03
2024-05-26 18:55:00,SystemResetWarning,0826.4,5.01,000.00,027.7,026.9,000.0,035.9,029.5,012.4,0000.0,0002.59,0005.77,0002.03
2024-05-26 18:56:00,SystemResetWarning,0826.4,4.99,000.00,027.7,027.0,000.0,035.9,029.5,012.2,0000.0,0002.63,0005.49,0002.05
2024-05-26 18:57:00,SystemResetWarning,0826.2,4.99,000.00,027.7,027.0,000.0,035.9,029.5,012.6,0000.0,0002.59,0005.31,0002.05
2024-05-26 18:58:00,SystemResetWarning,0826.2,5.00,000.00,027.7,026.9,000.0,035.9,029.4,012.3,0000.0,0002.57,0005.24,0002.06
2024-05-26 18:59:00,SystemResetWarning,0826.3,5.01,000.00,027.7,026.9,000.0,035.9,029.4,012.2,0000.0,0002.53,0005.19,0002.06
